Location: Chemnitz
(49.5500°N, 11.5830°E)
Time: 04:32:42
(UTC+01:00)

ISS - Pass Details

Date: 10 January 2018
Orbit: 401 x 406 km, 51.6° (Epoch: 17 January)

Event Time Altitude Azimuth Distance (km) Brightness Sun altitude
Exits shadow 06:32:42 32° 278° (W) 718 -3.1 -14.7°
Maximum altitude 06:34:01 69° 204° (SSW) 438 -3.8 -14.5°
Drops below altitude 10° 06:37:17 10° 120° (ESE) 1,463 0.3 -14.0°
Sets 06:39:22 0° 118° (ESE) 2,322 1.9 -13.7°
